Previsão horária em Abercarn

Hoje, 22 Janeiro, Sexta-feira

Tempo Temperatura Precipitação Vento Pressão Humidade
00:00 -1°C° 0 mm 2 m/s 722 mmHg 91%
01:00 -1°C° 0 mm 2 m/s 723 mmHg 90%
02:00 -1°C° 0 mm 2 m/s 723 mmHg 90%
03:00 -1°C° 0 mm 2 m/s 723 mmHg 89%
04:00 -1°C° 0 mm 2 m/s 723 mmHg 89%
05:00 -1°C° 0 mm 2 m/s 724 mmHg 89%
06:00 -1°C° 0 mm 2 m/s 724 mmHg 89%
07:00 -1°C° 0 mm 2 m/s 725 mmHg 88%
08:00 +2°C° 0 mm 1 m/s 725 mmHg 88%
09:00 +2°C° 0 mm 1 m/s 725 mmHg 87%
10:00 +2°C° 0 mm 2 m/s 726 mmHg 82%
11:00 +3°C° 0 mm 2 m/s 726 mmHg 78%
12:00 +5°C° 0 mm 2 m/s 727 mmHg 73%
13:00 +5°C° 0 mm 2 m/s 726 mmHg 74%
14:00 +4°C° 0 mm 2 m/s 726 mmHg 75%
15:00 +4°C° 0 mm 2 m/s 726 mmHg 75%
16:00 +3°C° 0 mm 2 m/s 726 mmHg 79%
17:00 +3°C° 0 mm 1 m/s 726 mmHg 83%
18:00 +2°C° 0 mm 1 m/s 726 mmHg 87%
19:00 +2°C° 0 mm 1 m/s 727 mmHg 86%
20:00 +2°C° 0 mm 1 m/s 727 mmHg 86%
21:00 +2°C° 0 mm 1 m/s 727 mmHg 85%
22:00 +2°C° 0 mm 1 m/s 727 mmHg 85%
23:00 +1°C° 0 mm 1 m/s 727 mmHg 86%

Amanhã, 23 Janeiro, Sábado

Tempo Temperatura Precipitação Vento Pressão Humidade
00:00 +1°C° 0 mm 1 m/s 727 mmHg 86%
01:00 +1°C° 0 mm 1 m/s 727 mmHg 86%
02:00 +1°C° 0 mm 1 m/s 727 mmHg 86%
03:00 0°C° 0 mm 1 m/s 727 mmHg 85%
04:00 0°C° 0 mm 1 m/s 727 mmHg 85%
05:00 0°C° 0 mm 1 m/s 728 mmHg 85%
06:00 +1°C° 0 mm 1 m/s 728 mmHg 85%
07:00 -1°C° 0 mm 2 m/s 728 mmHg 85%
08:00 -1°C° 0 mm 2 m/s 729 mmHg 85%
09:00 -1°C° 0 mm 2 m/s 729 mmHg 86%
10:00 +1°C° 0 mm 2 m/s 730 mmHg 80%
11:00 +2°C° 0 mm 2 m/s 730 mmHg 74%
12:00 +3°C° 0 mm 2 m/s 730 mmHg 69%
13:00 +3°C° 0 mm 2 m/s 730 mmHg 68%
14:00 +3°C° 0 mm 2 m/s 730 mmHg 67%
15:00 +3°C° 0 mm 2 m/s 730 mmHg 67%
16:00 +2°C° 0 mm 2 m/s 730 mmHg 71%
17:00 -1°C° 0 mm 2 m/s 730 mmHg 76%
18:00 0°C° 0 mm 1 m/s 730 mmHg 81%
19:00 0°C° 0 mm 1 m/s 730 mmHg 81%
20:00 0°C° 0 mm 1 m/s 730 mmHg 82%
21:00 -1°C° 0 mm 0 m/s 730 mmHg 82%
22:00 0°C° 0 mm 1 m/s 730 mmHg 82%
23:00 0°C° 0 mm 1 m/s 730 mmHg 82%

Depois de amanhã, 24 Janeiro, Domingo

Tempo Temperatura Precipitação Vento Pressão Humidade
00:00 0°C° 0 mm 1 m/s 730 mmHg 82%
01:00 0°C° 0 mm 1 m/s 730 mmHg 83%
02:00 0°C° 0 mm 1 m/s 729 mmHg 84%
03:00 0°C° 0 mm 1 m/s 729 mmHg 85%
04:00 -2°C° 0 mm 2 m/s 729 mmHg 86%
05:00 -2°C° 0 mm 2 m/s 729 mmHg 87%
06:00 -2°C° 0 mm 3 m/s 729 mmHg 88%
07:00 -2°C° 1.4 mm 2 m/s 729 mmHg 91%
08:00 -2°C° 1.4 mm 2 m/s 729 mmHg 93%
09:00 -2°C° 1.4 mm 2 m/s 729 mmHg 95%
10:00 -1°C° 0.4 mm 3 m/s 730 mmHg 93%
11:00 -1°C° 0.4 mm 3 m/s 730 mmHg 91%
12:00 -1°C° 0.4 mm 4 m/s 730 mmHg 89%
13:00 -1°C° 0 mm 4 m/s 731 mmHg 86%
14:00 -1°C° 0 mm 4 m/s 731 mmHg 84%
15:00 -1°C° 0 mm 4 m/s 731 mmHg 82%
16:00 -2°C° 0 mm 4 m/s 732 mmHg 84%
17:00 -2°C° 0 mm 4 m/s 732 mmHg 85%
18:00 -3°C° 0 mm 4 m/s 732 mmHg 87%
19:00 -3°C° 0.1 mm 6 m/s 733 mmHg 89%
20:00 -3°C° 0.1 mm 7 m/s 733 mmHg 90%
21:00 -3°C° 0.1 mm 9 m/s 733 mmHg 91%
22:00 -3°C° 0.1 mm 9 m/s 733 mmHg 92%
23:00 -3°C° 0.1 mm 9 m/s 733 mmHg 92%

25 Janeiro, Segunda-feira

Tempo Temperatura Precipitação Vento Pressão Humidade
00:00 -2°C° 0.1 mm 8 m/s 734 mmHg 92%
01:00 -2°C° 0 mm 8 m/s 734 mmHg 92%
02:00 -2°C° 0 mm 8 m/s 735 mmHg 92%
03:00 -2°C° 0 mm 8 m/s 735 mmHg 92%
04:00 -2°C° 0 mm 7 m/s 736 mmHg 91%
05:00 -2°C° 0 mm 7 m/s 736 mmHg 91%
06:00 -2°C° 0 mm 6 m/s 737 mmHg 91%
07:00 -2°C° 0 mm 6 m/s 737 mmHg 89%
08:00 -1°C° 0 mm 5 m/s 738 mmHg 88%
09:00 -1°C° 0 mm 5 m/s 738 mmHg 86%
10:00 -1°C° 0 mm 5 m/s 738 mmHg 85%
11:00 0°C° 0 mm 5 m/s 739 mmHg 84%
12:00 0°C° 0 mm 5 m/s 739 mmHg 83%
13:00 0°C° 0 mm 5 m/s 739 mmHg 83%
14:00 0°C° 0 mm 5 m/s 739 mmHg 83%
15:00 0°C° 0 mm 5 m/s 739 mmHg 84%
16:00 -1°C° 0 mm 4 m/s 740 mmHg 84%
17:00 -2°C° 0 mm 4 m/s 740 mmHg 85%
18:00 -1°C° 0 mm 3 m/s 741 mmHg 86%
19:00 -2°C° 0 mm 3 m/s 741 mmHg 86%
20:00 -2°C° 0 mm 3 m/s 741 mmHg 86%
21:00 -2°C° 0 mm 2 m/s 742 mmHg 86%
22:00 -2°C° 0 mm 2 m/s 742 mmHg 86%
23:00 0°C° 0 mm 1 m/s 742 mmHg 86%

26 Janeiro, Terça-feira

Tempo Temperatura Precipitação Vento Pressão Humidade
00:00 0°C° 0 mm 1 m/s 742 mmHg 85%
01:00 0°C° 0 mm 1 m/s 741 mmHg 86%
02:00 -2°C° 0 mm 2 m/s 741 mmHg 87%
03:00 -1°C° 0 mm 2 m/s 741 mmHg 87%
04:00 -1°C° 0.2 mm 2 m/s 740 mmHg 90%
05:00 +1°C° 0.2 mm 2 m/s 740 mmHg 93%
06:00 +1°C° 0.2 mm 2 m/s 739 mmHg 96%
07:00 +1°C° 0.9 mm 3 m/s 739 mmHg 97%
08:00 +2°C° 0.9 mm 3 m/s 738 mmHg 98%
09:00 +2°C° 0.9 mm 3 m/s 737 mmHg 98%
10:00 +2°C° 1.5 mm 5 m/s 737 mmHg 98%
11:00 +3°C° 1.5 mm 6 m/s 736 mmHg 98%
12:00 +3°C° 1.5 mm 7 m/s 735 mmHg 97%
13:00 +4°C° 0.2 mm 7 m/s 735 mmHg 97%
14:00 +5°C° 0.2 mm 7 m/s 735 mmHg 96%
15:00 +7°C° 0.2 mm 6 m/s 735 mmHg 96%
16:00 +5°C° 0 mm 6 m/s 736 mmHg 95%
17:00 +5°C° 0 mm 6 m/s 737 mmHg 94%
18:00 +4°C° 0 mm 6 m/s 738 mmHg 93%
19:00 +4°C° 0 mm 6 m/s 739 mmHg 93%
20:00 +4°C° 0 mm 6 m/s 739 mmHg 93%
21:00 +3°C° 0 mm 6 m/s 740 mmHg 93%
22:00 +3°C° 0 mm 6 m/s 740 mmHg 93%
23:00 +3°C° 0 mm 6 m/s 741 mmHg 93%

27 Janeiro, Quarta-feira

Tempo Temperatura Precipitação Vento Pressão Humidade
00:00 +3°C° 0 mm 6 m/s 741 mmHg 93%
01:00 +3°C° 0 mm 5 m/s 741 mmHg 94%
02:00 +3°C° 0 mm 4 m/s 741 mmHg 94%
03:00 +3°C° 0 mm 3 m/s 742 mmHg 95%
04:00 +3°C° 0 mm 3 m/s 742 mmHg 95%
05:00 +3°C° 0 mm 3 m/s 742 mmHg 96%
06:00 +4°C° 0 mm 2 m/s 742 mmHg 96%
07:00 +4°C° 0 mm 3 m/s 742 mmHg 97%
08:00 +4°C° 0 mm 3 m/s 742 mmHg 97%
09:00 +5°C° 0 mm 3 m/s 742 mmHg 97%
10:00 +7°C° 0.1 mm 3 m/s 742 mmHg 96%
11:00 +6°C° 0.1 mm 4 m/s 741 mmHg 95%
12:00 +7°C° 0.1 mm 4 m/s 741 mmHg 94%
13:00 +7°C° 1.2 mm 5 m/s 740 mmHg 95%
14:00 +7°C° 1.2 mm 5 m/s 739 mmHg 97%
15:00 +7°C° 1.2 mm 6 m/s 738 mmHg 98%
16:00 +8°C° 2 mm 6 m/s 737 mmHg 97%
17:00 +8°C° 2 mm 7 m/s 736 mmHg 97%
18:00 +9°C° 2 mm 7 m/s 736 mmHg 97%
19:00 +9°C° 1.8 mm 7 m/s 735 mmHg 97%
20:00 +9°C° 1.8 mm 8 m/s 734 mmHg 96%
21:00 +10°C° 1.8 mm 8 m/s 733 mmHg 96%
22:00 +8°C° 0.5 mm 9 m/s 731 mmHg 94%
23:00 +8°C° 0.5 mm 10 m/s 730 mmHg 93%
Mostrar mais